Time,TemperatureF,DewpointF,PressureIn,WindDirection,WindDirectionDegrees,WindSpeedMPH,WindSpeedGustMPH,Humidity,HourlyPrecipIn,Conditions,Clouds,dailyrainin,SolarRadiationWatts/m^2,SoftwareType,DateUTC
2013-03-11 00:03:00,21.0,15.0,-100.00,NE,38,6.0,16.0,76,0.00,,,0.00,0.000000,,2013-03-11 05:03:00,
2013-03-11 00:32:00,20.0,15.0,-100.00,ENE,60,6.0,11.0,79,0.00,,,0.00,0.000000,,2013-03-11 05:32:00,
2013-03-11 00:43:00,20.0,15.0,-100.00,ENE,60,6.0,11.0,79,0.00,,,0.00,0.000000,,2013-03-11 05:43:00,
2013-03-11 00:52:00,20.0,15.0,-100.00,ENE,60,6.0,11.0,79,0.00,,,0.00,0.000000,,2013-03-11 05:52:00,
2013-03-11 01:02:00,20.0,15.0,-100.00,ENE,60,6.0,11.0,79,0.00,,,0.00,0.000000,,2013-03-11 06:02:00,
2013-03-11 01:33:00,20.0,15.0,-100.00,NNE,17,4.0,10.0,81,0.00,,,0.00,0.000000,,2013-03-11 06:33:00,
2013-03-11 01:42:00,20.0,15.0,-100.00,NNE,17,4.0,10.0,81,0.00,,,0.00,0.000000,,2013-03-11 06:42:00,
2013-03-11 01:53:00,20.0,15.0,-100.00,NNE,17,4.0,10.0,81,0.00,,,0.00,0.000000,,2013-03-11 06:53:00,
2013-03-11 02:02:00,20.0,15.0,-100.00,NNE,17,4.0,10.0,81,0.00,,,0.00,0.000000,,2013-03-11 07:02:00,
2013-03-11 02:33:00,20.0,15.0,-100.00,NNE,12,6.0,10.0,82,0.00,,,0.00,0.000000,,2013-03-11 07:33:00,
2013-03-11 02:42:00,20.0,15.0,-100.00,NNE,12,6.0,10.0,82,0.00,,,0.00,0.000000,,2013-03-11 07:42:00,
2013-03-11 02:52:00,20.0,15.0,-100.00,NNE,12,6.0,10.0,82,0.00,,,0.00,0.000000,,2013-03-11 07:52:00,
2013-03-11 03:02:00,20.0,15.0,-100.00,NNE,12,6.0,10.0,82,0.00,,,0.00,0.000000,,2013-03-11 08:02:00,
2013-03-11 03:33:00,20.0,15.0,-100.00,NNE,20,5.0,11.0,82,0.00,,,0.00,0.000000,,2013-03-11 08:33:00,
2013-03-11 03:42:00,20.0,15.0,-100.00,NNE,20,5.0,11.0,82,0.00,,,0.00,0.000000,,2013-03-11 08:42:00,
2013-03-11 03:52:00,20.0,15.0,-100.00,NNE,20,5.0,11.0,82,0.00,,,0.00,0.000000,,2013-03-11 08:52:00,
2013-03-11 04:02:00,20.0,15.0,-100.00,NNE,20,5.0,11.0,82,0.00,,,0.00,0.000000,,2013-03-11 09:02:00,
2013-03-11 04:23:00,20.0,16.0,-100.00,NNE,20,5.0,12.0,83,0.00,,,0.00,0.000000,,2013-03-11 09:23:00,
2013-03-11 04:32:00,20.0,16.0,-100.00,NNE,20,5.0,12.0,83,0.00,,,0.00,0.000000,,2013-03-11 09:32:00,
2013-03-11 04:42:00,20.0,16.0,-100.00,NNE,20,5.0,12.0,83,0.00,,,0.00,0.000000,,2013-03-11 09:42:00,
2013-03-11 04:52:00,20.0,16.0,-100.00,NNE,20,5.0,12.0,83,0.00,,,0.00,0.000000,,2013-03-11 09:52:00,
2013-03-11 05:02:00,20.0,16.0,-100.00,NNE,20,5.0,12.0,83,0.00,,,0.00,0.000000,,2013-03-11 10:02:00,
2013-03-11 05:33:00,19.0,15.0,-100.00,NNE,30,7.0,13.0,84,0.00,,,0.00,0.000000,,2013-03-11 10:33:00,
2013-03-11 05:42:00,19.0,15.0,-100.00,NNE,30,7.0,13.0,84,0.00,,,0.00,0.000000,,2013-03-11 10:42:00,
2013-03-11 05:52:00,19.0,15.0,-100.00,NNE,30,7.0,13.0,84,0.00,,,0.00,0.000000,,2013-03-11 10:52:00,
2013-03-11 06:02:00,19.0,15.0,-100.00,NNE,30,7.0,13.0,84,0.00,,,0.00,0.000000,,2013-03-11 11:02:00,
2013-03-11 06:33:00,19.0,15.0,-100.00,NE,48,8.0,12.0,84,0.00,,,-99.99,0.000000,,2013-03-11 11:33:00,
2013-03-11 06:43:00,19.0,15.0,-100.00,NE,48,8.0,12.0,84,0.00,,,-99.99,0.000000,,2013-03-11 11:43:00,
2013-03-11 06:53:00,19.0,15.0,-100.00,NE,48,8.0,12.0,84,0.00,,,-99.99,0.000000,,2013-03-11 11:53:00,
2013-03-11 07:02:00,19.0,15.0,-100.00,NE,48,8.0,12.0,84,0.00,,,-99.99,0.000000,,2013-03-11 12:02:00,
2013-03-11 07:33:00,18.0,14.0,-100.00,NE,42,6.0,12.0,84,0.00,,,-99.99,0.000000,,2013-03-11 12:33:00,
2013-03-11 07:43:00,18.0,14.0,-100.00,NE,42,6.0,12.0,84,0.00,,,-99.99,0.000000,,2013-03-11 12:43:00,
2013-03-11 07:53:00,18.0,14.0,-100.00,NE,42,6.0,12.0,84,0.00,,,-99.99,0.000000,,2013-03-11 12:53:00,
2013-03-11 08:02:00,18.0,14.0,-100.00,NE,42,6.0,12.0,84,0.00,,,-99.99,0.000000,,2013-03-11 13:02:00,
2013-03-11 08:22:00,18.0,14.0,-100.00,NE,35,5.0,12.0,84,0.00,,,-99.99,0.000000,,2013-03-11 13:22:00,
2013-03-11 08:33:00,18.0,14.0,-100.00,NE,35,5.0,12.0,84,0.00,,,-99.99,0.000000,,2013-03-11 13:33:00,
2013-03-11 08:43:00,18.0,14.0,-100.00,NE,35,5.0,12.0,84,0.00,,,-99.99,0.000000,,2013-03-11 13:43:00,
2013-03-11 08:52:00,18.0,14.0,-100.00,NE,35,5.0,12.0,84,0.00,,,-99.99,0.000000,,2013-03-11 13:52:00,
2013-03-11 09:02:00,18.0,14.0,-100.00,NE,35,5.0,12.0,84,0.00,,,-99.99,0.000000,,2013-03-11 14:02:00,
2013-03-11 09:22:00,18.0,14.0,-100.00,NNE,30,7.0,11.0,83,0.00,,,0.00,9.000000,,2013-03-11 14:22:00,
2013-03-11 09:33:00,18.0,14.0,-100.00,NNE,30,7.0,11.0,83,0.00,,,0.00,9.000000,,2013-03-11 14:33:00,
2013-03-11 09:43:00,18.0,14.0,-100.00,NNE,30,7.0,11.0,83,0.00,,,0.00,9.000000,,2013-03-11 14:43:00,
2013-03-11 09:53:00,18.0,14.0,-100.00,NNE,30,7.0,11.0,83,0.00,,,0.00,9.000000,,2013-03-11 14:53:00,
2013-03-11 10:02:00,18.0,14.0,-100.00,NNE,30,7.0,11.0,83,0.00,,,0.00,9.000000,,2013-03-11 15:02:00,
2013-03-11 10:23:00,19.0,14.0,-100.00,NNE,31,9.0,13.0,80,0.00,,,0.00,34.000000,,2013-03-11 15:23:00,
2013-03-11 10:33:00,19.0,14.0,-100.00,NNE,31,9.0,13.0,80,0.00,,,0.00,34.000000,,2013-03-11 15:33:00,
2013-03-11 10:43:00,19.0,14.0,-100.00,NNE,31,9.0,13.0,80,0.00,,,0.00,34.000000,,2013-03-11 15:43:00,
2013-03-11 10:53:00,19.0,14.0,-100.00,NNE,31,9.0,13.0,80,0.00,,,0.00,34.000000,,2013-03-11 15:53:00,
2013-03-11 11:02:00,19.0,14.0,-100.00,NNE,31,9.0,13.0,80,0.00,,,0.00,34.000000,,2013-03-11 16:02:00,
2013-03-11 11:32:00,19.0,12.0,-100.00,NE,34,9.0,15.0,75,0.00,,,0.00,55.000000,,2013-03-11 16:32:00,
2013-03-11 11:43:00,19.0,12.0,-100.00,NE,34,9.0,15.0,75,0.00,,,0.00,55.000000,,2013-03-11 16:43:00,
2013-03-11 11:52:00,19.0,12.0,-100.00,NE,34,9.0,15.0,75,0.00,,,0.00,55.000000,,2013-03-11 16:52:00,
2013-03-11 12:02:00,19.0,12.0,-100.00,NE,34,9.0,15.0,75,0.00,,,0.00,55.000000,,2013-03-11 17:02:00,
2013-03-11 12:38:00,22.0,13.0,-100.00,NNE,30,10.0,15.0,67,0.00,,,-99.99,78.000000,,2013-03-11 17:38:00,
2013-03-11 12:53:00,22.0,13.0,-100.00,NNE,30,10.0,15.0,67,0.00,,,-99.99,78.000000,,2013-03-11 17:53:00,
2013-03-11 13:02:00,22.0,13.0,-100.00,NNE,30,10.0,15.0,67,0.00,,,-99.99,78.000000,,2013-03-11 18:02:00,
2013-03-11 13:33:00,23.0,13.0,-100.00,NNE,27,6.0,15.0,65,0.00,,,-99.99,106.000000,,2013-03-11 18:33:00,
2013-03-11 13:42:00,23.0,13.0,-100.00,NNE,27,6.0,15.0,65,0.00,,,-99.99,106.000000,,2013-03-11 18:42:00,
2013-03-11 13:53:00,23.0,13.0,-100.00,NNE,27,6.0,15.0,65,0.00,,,-99.99,106.000000,,2013-03-11 18:53:00,
2013-03-11 14:02:00,23.0,13.0,-100.00,NNE,27,6.0,15.0,65,0.00,,,-99.99,106.000000,,2013-03-11 19:02:00,
2013-03-11 14:33:00,23.0,14.0,-100.00,NNE,32,8.0,15.0,67,0.00,,,0.00,107.000000,,2013-03-11 19:33:00,
2013-03-11 14:43:00,23.0,14.0,-100.00,NNE,32,8.0,15.0,67,0.00,,,0.00,107.000000,,2013-03-11 19:43:00,
2013-03-11 14:53:00,23.0,14.0,-100.00,NNE,32,8.0,15.0,67,0.00,,,0.00,107.000000,,2013-03-11 19:53:00,
2013-03-11 15:02:00,23.0,14.0,-100.00,NNE,32,8.0,15.0,67,0.00,,,0.00,107.000000,,2013-03-11 20:02:00,
2013-03-11 15:33:00,23.0,14.0,-100.00,NNE,15,8.0,14.0,68,0.00,,,0.00,89.000000,,2013-03-11 20:33:00,
2013-03-11 15:44:00,23.0,14.0,-100.00,NNE,15,8.0,14.0,68,0.00,,,0.00,89.000000,,2013-03-11 20:44:00,
2013-03-11 15:53:00,23.0,14.0,-100.00,NNE,15,8.0,14.0,68,0.00,,,0.00,89.000000,,2013-03-11 20:53:00,
2013-03-11 16:03:00,23.0,14.0,-100.00,NNE,15,8.0,14.0,68,0.00,,,0.00,89.000000,,2013-03-11 21:03:00,
2013-03-11 16:33:00,23.0,14.0,-100.00,NE,34,7.0,15.0,68,0.00,,,0.00,76.000000,,2013-03-11 21:33:00,
2013-03-11 16:44:00,23.0,14.0,-100.00,NE,34,7.0,15.0,68,0.00,,,0.00,76.000000,,2013-03-11 21:44:00,
2013-03-11 16:53:00,23.0,14.0,-100.00,NE,34,7.0,15.0,68,0.00,,,0.00,76.000000,,2013-03-11 21:53:00,
2013-03-11 17:02:00,23.0,14.0,-100.00,NE,34,7.0,15.0,68,0.00,,,0.00,76.000000,,2013-03-11 22:02:00,
2013-03-11 17:33:00,23.0,15.0,-100.00,NNW,331,6.0,10.0,70,0.00,,,0.00,46.000000,,2013-03-11 22:33:00,
2013-03-11 17:43:00,23.0,15.0,-100.00,NNW,331,6.0,10.0,70,0.00,,,0.00,46.000000,,2013-03-11 22:43:00,
2013-03-11 17:53:00,23.0,15.0,-100.00,NNW,331,6.0,10.0,70,0.00,,,0.00,46.000000,,2013-03-11 22:53:00,
2013-03-11 18:03:00,23.0,15.0,-100.00,NNW,331,6.0,10.0,70,0.00,,,0.00,46.000000,,2013-03-11 23:03:00,
2013-03-11 18:33:00,23.0,16.0,-100.00,NNW,345,7.0,10.0,74,0.00,,,0.00,29.000000,,2013-03-11 23:33:00,
2013-03-11 18:43:00,23.0,16.0,-100.00,NNW,345,7.0,10.0,74,0.00,,,0.00,29.000000,,2013-03-11 23:43:00,
2013-03-11 18:53:00,23.0,16.0,-100.00,NNW,345,7.0,10.0,74,0.00,,,0.00,29.000000,,2013-03-11 23:53:00,
2013-03-11 19:02:00,23.0,16.0,-100.00,NNW,345,7.0,10.0,74,0.00,,,0.00,29.000000,,2013-03-12 00:02:00,
2013-03-11 19:33:00,22.0,16.0,-100.00,NNW,342,4.0,10.0,77,0.00,,,0.00,7.000000,,2013-03-12 00:33:00,
2013-03-11 19:43:00,22.0,16.0,-100.00,NNW,342,4.0,10.0,77,0.00,,,0.00,7.000000,,2013-03-12 00:43:00,
2013-03-11 19:53:00,22.0,16.0,-100.00,NNW,342,4.0,10.0,77,0.00,,,0.00,7.000000,,2013-03-12 00:53:00,
2013-03-11 20:02:00,22.0,16.0,-100.00,NNW,342,4.0,10.0,77,0.00,,,0.00,7.000000,,2013-03-12 01:02:00,
2013-03-11 20:33:00,22.0,17.0,-100.00,NW,326,5.0,9.0,80,0.00,,,0.00,0.000000,,2013-03-12 01:33:00,
2013-03-11 20:42:00,22.0,17.0,-100.00,NW,326,5.0,9.0,80,0.00,,,0.00,0.000000,,2013-03-12 01:42:00,
2013-03-11 20:52:00,22.0,17.0,-100.00,NW,326,5.0,9.0,80,0.00,,,0.00,0.000000,,2013-03-12 01:52:00,
2013-03-11 21:02:00,22.0,17.0,-100.00,NW,326,5.0,9.0,80,0.00,,,0.00,0.000000,,2013-03-12 02:02:00,
2013-03-11 21:32:00,21.0,17.0,-100.00,NNW,333,5.0,10.0,85,0.00,,,0.00,0.000000,,2013-03-12 02:32:00,
2013-03-11 21:43:00,21.0,17.0,-100.00,NNW,333,5.0,10.0,85,0.00,,,0.00,0.000000,,2013-03-12 02:43:00,
2013-03-11 21:52:00,21.0,17.0,-100.00,NNW,333,5.0,10.0,85,0.00,,,0.00,0.000000,,2013-03-12 02:52:00,
2013-03-11 22:02:00,21.0,17.0,-100.00,NNW,333,5.0,10.0,85,0.00,,,0.00,0.000000,,2013-03-12 03:02:00,
2013-03-11 22:32:00,21.0,18.0,-100.00,North,2,6.0,10.0,87,0.00,,,0.00,0.000000,,2013-03-12 03:32:00,
2013-03-11 22:42:00,21.0,18.0,-100.00,North,2,6.0,10.0,87,0.00,,,0.00,0.000000,,2013-03-12 03:42:00,
2013-03-11 22:53:00,21.0,18.0,-100.00,North,2,6.0,10.0,87,0.00,,,0.00,0.000000,,2013-03-12 03:53:00,
2013-03-11 23:02:00,21.0,18.0,-100.00,North,2,6.0,10.0,87,0.00,,,0.00,0.000000,,2013-03-12 04:02:00,
2013-03-11 23:33:00,20.0,15.0,-100.00,NNE,16,5.0,11.0,80,0.00,,,0.00,0.000000,,2013-03-12 04:33:00,
2013-03-11 23:43:00,20.0,15.0,-100.00,NNE,16,5.0,11.0,80,0.00,,,0.00,0.000000,,2013-03-12 04:43:00,
2013-03-11 23:52:00,20.0,15.0,-100.00,NNE,16,5.0,11.0,80,0.00,,,0.00,0.000000,,2013-03-12 04:52:00,